Regional Weather Roundup
Issued by NWS Albany, NY

Home | Current Version | Previous Version | Text Only | Print | Product List | Glossary On
Versions: 1 2 3 4 5 6 7 8 9 10 11 12 13 14 15 16 17 18 19 20 21 22 23 24 25 26 27 28 29 30 31 32 33 34 35 36 37 38 39 40 41 42 43 44 45 46 47 48 49 50
000
ASUS41 KALY 280810
RWRALY

NEW YORK STATE HOURLY WEATHER ROUNDUP
NATIONAL WEATHER SERVICE ALBANY NY
300 AM EST SAT FEB 28 2015

NOTE: "FAIR" INDICATES FEW OR NO CLOUDS BELOW 12,000 FEET WITH NO
SIGNIFICANT WEATHER AND/OR NO OBSTRUCTIONS TO VISIBILITY.

NYZ032-033-038>043-046>054-057>066-NYZ062>081-280900-
EAST


CITY           SKY/WX    TMP DP  RH WIND       PRES   REMARKS
ALBANY         PTCLDY     7  -4  60 CALM      30.68S
GLENS FALLS    CLEAR     -8 -15  71 CALM      30.64S
POUGHKEEPSIE   CLEAR     -2  -7  79 CALM      30.66S
NEWBURGH       CLEAR     16   1  53 NW9       30.63  WCI   4
MONTGOMERY     CLEAR      9  -8  46 E3        30.62S
WHITE PLAINS   CLEAR     11  -3  53 NW9       30.61R WCI  -2
ISLIP          CLEAR     16   3  56 N8        30.63R WCI   5
NEW YORK CITY  CLEAR     18  -2  41 NW10      30.67R WCI   6
CENTRAL PARK   CLEAR     17  -4  39 VRB3      30.68R
$$

NYZ005>009-017-018-044>046-055-056-280900-
CENTRAL


CITY           SKY/WX    TMP DP  RH WIND       PRES   REMARKS
FULTON         FLURRIES   4  -3  73 SW7       30.68R WCI  -8
SYRACUSE       PTCLDY     9  -1  63 W12       30.70R WCI  -6
ROME           LGT SNOW   5   0  79 NW8       30.70S WCI  -8
ELMIRA         CLEAR     -8 -14  74 CALM      30.68R
BINGHAMTON     CLEAR      0  -7  72 W3        30.56R
$$

NYZ026>034-041>043-280900-
NORTH


CITY           SKY/WX    TMP DP  RH WIND       PRES   REMARKS
WATERTOWN      CLOUDY     9   1  70 W7        30.68R WCI  -2
FORT DRUM      NOT AVBL
MASSENA        CLEAR      3  -6  66 SW9       30.64R WCI -12
SARANAC LAKE   CLOUDY    -1  -5  82 W3        30.47R FOG
PLATTSBURGH    CLEAR      9  -1  64 CALM      30.61R
$$

NYZ001>004-010>016-019>021-280900-
WEST


CITY           SKY/WX    TMP DP  RH WIND       PRES   REMARKS
NIAGARA FALLS  CLEAR      1  -3  83 S6        30.67S WCI -10
BUFFALO        FAIR       2  -3  80 SW9       30.67S WCI -13
DUNKIRK        PTCLDY     1  -5  75 SW8       30.69S WCI -13
JAMESTOWN      PTCLDY    -6 -17  59 S5        30.57S WCI -17
WELLSVILLE     PTCLDY     0  -8  69 W7        30.55R WCI -13
ROCHESTER      MOCLDY     0  -5  79 SW6       30.69R WCI -12
PENN YAN       CLEAR      2  -6  69 SW7       30.65S WCI -11
$$

             KEY
       WCI = WIND CHILL INDEX
       VSB = VISIBILITY
       HX  = HEAT INDEX
$$



USA.gov is the U.S. government's official web portal to all federal, state and local government web resources and services.